Wetterdaten: Mittwoch, 18.12.2013
Datum Zeit Temperatur Luftfeuchte Luftdruck Regen Wind Richtung Richtung Taupunkt Windchill Windben
18.12.2013 00:00 -4,4 C 79 % 1025,0 hPa 0,0 l/m 0,3 km/h (0 Bft) NO 45 -7,5 C -4,6 C 0,0 km/h (0 Bft)
18.12.2013 00:05 -4,6 C 79 % 1025,0 hPa 0,0 l/m 0,3 km/h (0 Bft) NO 45 -7,7 C -4,7 C 0,0 km/h (0 Bft)
18.12.2013 00:10 -4,6 C 80 % 1025,0 hPa 0,0 l/m 0,2 km/h (0 Bft) N-NO 22 -7,5 C -4,8 C 0,0 km/h (0 Bft)
18.12.2013 00:15 -4,9 C 79 % 1025,0 hPa 0,0 l/m 0,2 km/h (0 Bft) N-NO 22 -8,0 C -4,9 C 0,0 km/h (0 Bft)
18.12.2013 00:20 -4,9 C 80 % 1025,2 hPa 0,0 l/m 0,0 km/h (0 Bft) N-NO 22 -7,8 C -4,9 C 0,0 km/h (0 Bft)
18.12.2013 00:25 -5,0 C 80 % 1025,2 hPa 0,0 l/m 0,0 km/h (0 Bft) N 360 -7,9 C -5,0 C 0,0 km/h (0 Bft)
18.12.2013 00:30 -4,9 C 80 % 1025,2 hPa 0,0 l/m 0,0 km/h (0 Bft) N-NW 337 -7,8 C -5,1 C 0,0 km/h (0 Bft)
18.12.2013 00:35 -5,4 C 79 % 1025,2 hPa 0,0 l/m 0,2 km/h (0 Bft) N-NW 337 -8,5 C -5,1 C 0,0 km/h (0 Bft)
18.12.2013 00:40 -5,5 C 80 % 1024,9 hPa 0,0 l/m 0,2 km/h (0 Bft) N-NW 337 -8,4 C -5,2 C 0,0 km/h (0 Bft)
18.12.2013 00:45 -5,7 C 80 % 1024,9 hPa 0,0 l/m 0,0 km/h (0 Bft) N-NW 337 -8,6 C -5,4 C 0,0 km/h (0 Bft)
18.12.2013 00:50 -5,6 C 81 % 1024,9 hPa 0,0 l/m 0,0 km/h (0 Bft) N-NO 22 -8,3 C -5,6 C 0,0 km/h (0 Bft)
18.12.2013 00:55 -5,6 C 81 % 1024,9 hPa 0,0 l/m 0,0 km/h (0 Bft) N-NO 22 -8,3 C -5,7 C 0,0 km/h (0 Bft)
18.12.2013 01:00 -5,3 C 82 % 1024,7 hPa 0,0 l/m 0,0 km/h (0 Bft) N-NO 22 -7,9 C -5,5 C 0,0 km/h (0 Bft)
18.12.2013 01:05 -5,1 C 83 % 1024,7 hPa 0,0 l/m 0,0 km/h (0 Bft) N-NW 337 -7,5 C -5,5 C 0,0 km/h (0 Bft)
18.12.2013 01:10 -5,6 C 82 % 1024,7 hPa 0,0 l/m 0,2 km/h (0 Bft) N-NO 22 -8,2 C -5,4 C 2,1 km/h (1 Bft)
18.12.2013 01:15 -5,7 C 82 % 1024,7 hPa 0,0 l/m 0,2 km/h (0 Bft) N-NW 337 -8,3 C -5,3 C 0,0 km/h (0 Bft)
18.12.2013 01:20 -5,1 C 83 % 1024,8 hPa 0,0 l/m 0,3 km/h (0 Bft) N 360 -7,5 C -5,3 C 2,3 km/h (1 Bft)
18.12.2013 01:25 -5,3 C 83 % 1024,8 hPa 0,0 l/m 0,2 km/h (0 Bft) N-NO 22 -7,7 C -5,3 C 0,0 km/h (0 Bft)
18.12.2013 01:30 -5,4 C 83 % 1024,8 hPa 0,0 l/m 0,2 km/h (0 Bft) N-NO 22 -7,8 C -5,3 C 0,0 km/h (0 Bft)
18.12.2013 01:35 -4,8 C 83 % 1024,8 hPa 0,0 l/m 0,0 km/h (0 Bft) N-NO 22 -7,2 C -5,3 C 0,0 km/h (0 Bft)
18.12.2013 01:40 -5,6 C 83 % 1024,5 hPa 0,0 l/m 0,0 km/h (0 Bft) N-NW 337 -8,0 C -5,3 C 0,0 km/h (0 Bft)
18.12.2013 01:45 -5,9 C 82 % 1024,5 hPa 0,0 l/m 0,0 km/h (0 Bft) N-NW 337 -8,5 C -5,5 C 0,0 km/h (0 Bft)
18.12.2013 01:50 -5,9 C 82 % 1024,5 hPa 0,0 l/m 0,0 km/h (0 Bft) N-NW 337 -8,5 C -5,6 C 0,0 km/h (0 Bft)
18.12.2013 01:55 -5,9 C 82 % 1024,5 hPa 0,0 l/m 0,0 km/h (0 Bft) N-NW 337 -8,5 C -5,6 C 0,0 km/h (0 Bft)
18.12.2013 02:00 -5,3 C 83 % 1024,8 hPa 0,0 l/m 0,0 km/h (0 Bft) N 360 -7,7 C -5,8 C 0,0 km/h (0 Bft)
18.12.2013 02:05 -5,4 C 83 % 1024,8 hPa 0,0 l/m 0,3 km/h (0 Bft) N 360 -7,8 C -5,7 C 1,9 km/h (1 Bft)
18.12.2013 02:10 -5,1 C 84 % 1024,8 hPa 0,0 l/m 0,8 km/h (0 Bft) N-NW 337 -7,4 C -5,4 C 2,4 km/h (1 Bft)
18.12.2013 02:15 -5,2 C 84 % 1024,8 hPa 0,0 l/m 0,6 km/h (0 Bft) N-NW 337 -7,5 C -5,4 C 0,0 km/h (0 Bft)
18.12.2013 02:20 -5,4 C 84 % 1024,7 hPa 0,0 l/m 0,0 km/h (0 Bft) N-NO 22 -7,7 C -5,5 C 0,0 km/h (0 Bft)
18.12.2013 02:25 -5,1 C 84 % 1024,7 hPa 0,0 l/m 0,0 km/h (0 Bft) N-NO 22 -7,4 C -5,5 C 0,0 km/h (0 Bft)
18.12.2013 02:30 -5,3 C 84 % 1024,7 hPa 0,0 l/m 0,0 km/h (0 Bft) N-NO 22 -7,6 C -5,6 C 0,0 km/h (0 Bft)
18.12.2013 02:35 -5,7 C 83 % 1024,7 hPa 0,0 l/m 0,0 km/h (0 Bft) N-NO 22 -8,1 C -5,6 C 0,0 km/h (0 Bft)
18.12.2013 02:40 -5,5 C 83 % 1024,8 hPa 0,0 l/m 0,0 km/h (0 Bft) N-NW 337 -7,9 C -5,6 C 0,0 km/h (0 Bft)
18.12.2013 02:45 -5,5 C 83 % 1024,8 hPa 0,0 l/m 0,0 km/h (0 Bft) N-NO 22 -7,9 C -5,6 C 0,0 km/h (0 Bft)
18.12.2013 02:50 -5,3 C 84 % 1024,8 hPa 0,0 l/m 0,0 km/h (0 Bft) N-NO 22 -7,6 C -5,6 C 0,0 km/h (0 Bft)
18.12.2013 02:55 -5,5 C 84 % 1024,8 hPa 0,0 l/m 0,2 km/h (0 Bft) N-NO 22 -7,8 C -5,7 C 0,0 km/h (0 Bft)
18.12.2013 03:00 -5,6 C 84 % 1024,5 hPa 0,0 l/m 0,0 km/h (0 Bft) N 360 -7,9 C -5,6 C 0,0 km/h (0 Bft)
18.12.2013 03:05 -5,7 C 84 % 1024,5 hPa 0,0 l/m 0,0 km/h (0 Bft) N-NW 337 -8,0 C -5,7 C 0,0 km/h (0 Bft)
18.12.2013 03:10 -5,9 C 84 % 1024,5 hPa 0,0 l/m 0,0 km/h (0 Bft) N-NO 22 -8,2 C -5,7 C 0,0 km/h (0 Bft)
18.12.2013 03:15 -5,8 C 84 % 1024,5 hPa 0,0 l/m 0,0 km/h (0 Bft) N-NW 337 -8,1 C -5,6 C 0,0 km/h (0 Bft)
18.12.2013 03:20 -5,8 C 84 % 1024,4 hPa 0,0 l/m 0,0 km/h (0 Bft) N 360 -8,1 C -5,5 C 0,0 km/h (0 Bft)
18.12.2013 03:25 -5,5 C 84 % 1024,4 hPa 0,0 l/m 0,0 km/h (0 Bft) N-NO 22 -7,8 C -5,5 C 0,0 km/h (0 Bft)
18.12.2013 03:30 -5,5 C 84 % 1024,4 hPa 0,0 l/m 0,0 km/h (0 Bft) N 360 -7,8 C -5,6 C 0,0 km/h (0 Bft)
18.12.2013 03:35 -5,4 C 84 % 1024,4 hPa 0,0 l/m 0,2 km/h (0 Bft) N-NW 337 -7,7 C -5,5 C 0,0 km/h (0 Bft)
18.12.2013 03:40 -5,7 C 84 % 1024,1 hPa 0,0 l/m 0,2 km/h (0 Bft) NW 315 -8,0 C -5,4 C 0,0 km/h (0 Bft)
18.12.2013 03:45 -5,6 C 84 % 1024,1 hPa 0,0 l/m 0,0 km/h (0 Bft) NW 315 -7,9 C -5,4 C 0,0 km/h (0 Bft)
18.12.2013 03:50 -5,8 C 84 % 1024,1 hPa 0,0 l/m 0,0 km/h (0 Bft) N 360 -8,1 C -5,6 C 0,0 km/h (0 Bft)
18.12.2013 03:55 -5,9 C 83 % 1024,1 hPa 0,0 l/m 0,0 km/h (0 Bft) N 360 -8,3 C -5,8 C 0,0 km/h (0 Bft)
18.12.2013 04:00 -5,7 C 83 % 1023,9 hPa 0,0 l/m 0,3 km/h (0 Bft) N 360 -8,1 C -5,8 C 2,1 km/h (1 Bft)
18.12.2013 04:05 -5,6 C 84 % 1023,9 hPa 0,0 l/m 1,0 km/h (0 Bft) N-NW 337 -7,9 C -5,6 C 2,9 km/h (1 Bft)
18.12.2013 04:10 -5,7 C 84 % 1023,9 hPa 0,0 l/m 0,6 km/h (0 Bft) N-NO 22 -8,0 C -5,5 C 0,0 km/h (0 Bft)
18.12.2013 04:15 -5,8 C 83 % 1023,9 hPa 0,0 l/m 0,0 km/h (0 Bft) N-NO 22 -8,2 C -5,6 C 0,0 km/h (0 Bft)
18.12.2013 04:20 -5,5 C 84 % 1023,9 hPa 0,0 l/m 0,2 km/h (0 Bft) N 360 -7,8 C -5,5 C 2,1 km/h (1 Bft)
18.12.2013 04:25 -5,5 C 84 % 1023,9 hPa 0,0 l/m 0,6 km/h (0 Bft) N-NW 337 -7,8 C -5,5 C 2,6 km/h (1 Bft)
18.12.2013 04:30 -4,7 C 84 % 1023,9 hPa 0,0 l/m 1,0 km/h (0 Bft) NO 45 -7,0 C -5,1 C 0,0 km/h (0 Bft)
18.12.2013 04:35 -4,3 C 84 % 1023,9 hPa 0,0 l/m 0,8 km/h (0 Bft) NO 45 -6,6 C -5,0 C 3,7 km/h (1 Bft)
18.12.2013 04:40 -4,9 C 83 % 1023,8 hPa 0,0 l/m 0,5 km/h (0 Bft) W 270 -7,3 C -5,0 C 2,9 km/h (1 Bft)
18.12.2013 04:45 -5,3 C 83 % 1023,8 hPa 0,0 l/m 0,2 km/h (0 Bft) N-NO 22 -7,7 C -5,2 C 0,0 km/h (0 Bft)
18.12.2013 04:49 -5,3 C 83 % 1023,8 hPa 0,0 l/m 0,5 km/h (0 Bft) N-NO 22 -7,7 C -5,4 C 0,0 km/h (0 Bft)
18.12.2013 04:50 -5,3 C 83 % 1023,8 hPa 0,0 l/m 0,5 km/h (0 Bft) N-NO 22 -7,7 C -5,4 C 0,0 km/h (0 Bft)
18.12.2013 04:55 -5,5 C 82 % 1023,8 hPa 0,0 l/m 0,3 km/h (0 Bft) N-NO 22 -8,1 C -5,5 C 1,9 km/h (1 Bft)
18.12.2013 05:00 -5,2 C 83 % 1023,9 hPa 0,0 l/m 0,6 km/h (0 Bft) N-NO 22 -7,6 C -5,4 C 1,9 km/h (1 Bft)
18.12.2013 05:05 -5,3 C 82 % 1023,9 hPa 0,0 l/m 1,0 km/h (0 Bft) W-SW 247 -7,9 C -5,4 C 0,0 km/h (0 Bft)
18.12.2013 05:10 -5,2 C 82 % 1023,9 hPa 0,0 l/m 1,1 km/h (1 Bft) NO 45 -7,8 C -5,3 C 4,7 km/h (1 Bft)
18.12.2013 05:15 -5,2 C 82 % 1023,9 hPa 0,0 l/m 0,6 km/h (0 Bft) N-NO 22 -7,8 C -5,4 C 0,0 km/h (0 Bft)
18.12.2013 05:20 -5,3 C 82 % 1023,8 hPa 0,0 l/m 0,0 km/h (0 Bft) NO 45 -7,9 C -5,5 C 0,0 km/h (0 Bft)
18.12.2013 05:25 -5,5 C 82 % 1023,8 hPa 0,0 l/m 0,0 km/h (0 Bft) N 360 -8,1 C -5,5 C 0,0 km/h (0 Bft)
18.12.2013 05:30 -5,2 C 82 % 1023,8 hPa 0,0 l/m 0,0 km/h (0 Bft) N 360 -7,8 C -5,6 C 0,0 km/h (0 Bft)
18.12.2013 05:35 -5,5 C 82 % 1023,8 hPa 0,0 l/m 0,0 km/h (0 Bft) N 360 -8,1 C -5,7 C 0,0 km/h (0 Bft)
18.12.2013 05:40 -5,7 C 82 % 1023,8 hPa 0,0 l/m 0,2 km/h (0 Bft) W-NW 292 -8,3 C -5,7 C 1,6 km/h (1 Bft)
18.12.2013 05:45 -5,6 C 82 % 1023,8 hPa 0,0 l/m 0,5 km/h (0 Bft) NO 45 -8,2 C -5,7 C 1,6 km/h (1 Bft)
18.12.2013 05:50 -5,3 C 83 % 1023,8 hPa 0,0 l/m 0,6 km/h (0 Bft) W-NW 292 -7,7 C -5,4 C 1,6 km/h (1 Bft)
18.12.2013 05:55 -5,4 C 83 % 1023,8 hPa 0,0 l/m 1,4 km/h (1 Bft) NO 45 -7,8 C -5,3 C 6,9 km/h (2 Bft)
18.12.2013 06:00 -2,9 C 84 % 1024,2 hPa 0,0 l/m 3,9 km/h (1 Bft) NW 315 -5,2 C -5,7 C 6,4 km/h (2 Bft)
18.12.2013 06:05 -2,5 C 81 % 1024,2 hPa 0,0 l/m 4,5 km/h (1 Bft) S 180 -5,3 C -5,4 C 2,1 km/h (1 Bft)
18.12.2013 06:10 -2,4 C 77 % 1024,2 hPa 0,0 l/m 4,0 km/h (1 Bft) S-SW 202 -5,9 C -4,1 C 8,9 km/h (2 Bft)
18.12.2013 06:15 -3,9 C 76 % 1024,2 hPa 0,0 l/m 2,9 km/h (1 Bft) N 360 -7,5 C -3,4 C 2,1 km/h (1 Bft)
18.12.2013 06:20 -4,5 C 75 % 1024,2 hPa 0,0 l/m 0,8 km/h (0 Bft) N 360 -8,2 C -3,6 C 4,3 km/h (1 Bft)
18.12.2013 06:25 -4,4 C 76 % 1024,2 hPa 0,0 l/m 1,8 km/h (1 Bft) N 360 -8,0 C -3,9 C 7,1 km/h (2 Bft)
18.12.2013 06:30 -3,9 C 76 % 1024,2 hPa 0,0 l/m 3,1 km/h (1 Bft) O 90 -7,5 C -4,9 C 9,7 km/h (2 Bft)
18.12.2013 06:35 -2,9 C 74 % 1024,2 hPa 0,0 l/m 3,2 km/h (1 Bft) O 90 -6,9 C -4,3 C 3,2 km/h (1 Bft)
18.12.2013 06:40 -4,1 C 73 % 1024,6 hPa 0,0 l/m 1,9 km/h (1 Bft) N-NO 22 -8,2 C -3,5 C 0,0 km/h (0 Bft)
18.12.2013 06:45 -3,4 C 74 % 1024,6 hPa 0,0 l/m 1,0 km/h (0 Bft) N 360 -7,4 C -3,4 C 2,6 km/h (1 Bft)
18.12.2013 06:50 -4,0 C 73 % 1024,6 hPa 0,0 l/m 1,0 km/h (0 Bft) N 360 -8,1 C -3,5 C 0,0 km/h (0 Bft)
18.12.2013 06:55 -4,0 C 74 % 1024,6 hPa 0,0 l/m 0,6 km/h (0 Bft) N 360 -7,9 C -3,8 C 0,0 km/h (0 Bft)
18.12.2013 07:00 -4,0 C 74 % 1024,4 hPa 0,0 l/m 0,5 km/h (0 Bft) NO 45 -7,9 C -3,9 C 0,0 km/h (0 Bft)
18.12.2013 07:05 -4,1 C 75 % 1024,4 hPa 0,0 l/m 0,6 km/h (0 Bft) N-NW 337 -7,9 C -3,9 C 1,6 km/h (1 Bft)
18.12.2013 07:10 -4,3 C 75 % 1024,4 hPa 0,0 l/m 0,3 km/h (0 Bft) O 90 -8,0 C -4,0 C 0,0 km/h (0 Bft)
18.12.2013 07:15 -4,1 C 75 % 1024,4 hPa 0,0 l/m 0,0 km/h (0 Bft) O 90 -7,9 C -4,1 C 0,0 km/h (0 Bft)
18.12.2013 07:20 -4,0 C 75 % 1024,7 hPa 0,0 l/m 0,2 km/h (0 Bft) N-NW 337 -7,8 C -4,1 C 0,0 km/h (0 Bft)
18.12.2013 07:25 -4,3 C 75 % 1024,7 hPa 0,0 l/m 0,3 km/h (0 Bft) N-NO 22 -8,0 C -4,0 C 3,2 km/h (1 Bft)
18.12.2013 07:30 -0,7 C 73 % 1024,7 hPa 0,0 l/m 2,7 km/h (1 Bft) S-SO 157 -4,9 C -3,9 C 7,1 km/h (2 Bft)
18.12.2013 07:35 0,3 C 65 % 1024,7 hPa 0,0 l/m 5,0 km/h (1 Bft) O 90 -5,5 C -4,4 C 11,1 km/h (2 Bft)
18.12.2013 07:40 2,0 C 53 % 1024,9 hPa 0,0 l/m 8,2 km/h (2 Bft) SO 135 -6,6 C -4,6 C 15,3 km/h (3 Bft)
18.12.2013 07:45 2,4 C 49 % 1024,9 hPa 0,0 l/m 10,9 km/h (2 Bft) O-SO 112 -7,2 C -5,5 C 10,8 km/h (2 Bft)
18.12.2013 07:50 2,5 C 49 % 1024,9 hPa 0,0 l/m 11,9 km/h (2 Bft) O-SO 112 -7,1 C -4,9 C 15,9 km/h (3 Bft)
18.12.2013 07:55 2,9 C 48 % 1024,9 hPa 0,0 l/m 11,7 km/h (2 Bft) O-SO 112 -7,0 C -4,4 C 11,7 km/h (2 Bft)
18.12.2013 08:00 3,3 C 45 % 1024,8 hPa 0,0 l/m 11,3 km/h (2 Bft) O 90 -7,5 C -3,5 C 13,0 km/h (3 Bft)
18.12.2013 08:05 3,4 C 46 % 1024,8 hPa 0,0 l/m 11,1 km/h (2 Bft) O 90 -7,1 C -2,9 C 18,7 km/h (3 Bft)
18.12.2013 08:10 3,4 C 46 % 1024,8 hPa 0,0 l/m 10,6 km/h (2 Bft) O 90 -7,1 C -2,0 C 12,2 km/h (2 Bft)
18.12.2013 08:15 3,7 C 45 % 1024,8 hPa 0,0 l/m 10,1 km/h (2 Bft) SO 135 -7,1 C -1,4 C 18,8 km/h (3 Bft)
18.12.2013 08:20 2,6 C 49 % 1024,8 hPa 0,0 l/m 8,9 km/h (2 Bft) O 90 -7,0 C -0,3 C 8,2 km/h (2 Bft)
18.12.2013 08:25 2,3 C 51 % 1024,8 hPa 0,0 l/m 8,0 km/h (2 Bft) O-SO 112 -6,8 C 0,1 C 7,7 km/h (2 Bft)
18.12.2013 08:30 2,3 C 52 % 1024,8 hPa 0,0 l/m 7,1 km/h (2 Bft) O-SO 112 -6,5 C 0,9 C 9,0 km/h (2 Bft)
18.12.2013 08:35 2,1 C 53 % 1024,8 hPa 0,0 l/m 5,5 km/h (1 Bft) SO 135 -6,5 C 2,1 C 2,9 km/h (1 Bft)
18.12.2013 08:40 0,6 C 55 % 1024,9 hPa 0,0 l/m 2,3 km/h (1 Bft) S-SO 157 -7,4 C 2,3 C 0,0 km/h (0 Bft)
18.12.2013 08:45 0,3 C 56 % 1024,9 hPa 0,0 l/m 0,3 km/h (0 Bft) S-SO 157 -7,4 C 1,6 C 0,0 km/h (0 Bft)
18.12.2013 08:50 0,0 C 57 % 1024,9 hPa 0,0 l/m 0,2 km/h (0 Bft) S-SO 157 -7,5 C 1,0 C 1,9 km/h (1 Bft)
18.12.2013 08:55 -0,2 C 58 % 1024,9 hPa 0,0 l/m 0,2 km/h (0 Bft) S-SO 157 -7,4 C 0,5 C 0,0 km/h (0 Bft)
18.12.2013 09:00 -0,2 C 58 % 1025,0 hPa 0,0 l/m 0,2 km/h (0 Bft) S-SO 157 -7,4 C 0,2 C 0,0 km/h (0 Bft)
18.12.2013 09:05 -0,3 C 59 % 1025,0 hPa 0,0 l/m 0,2 km/h (0 Bft) O 90 -7,3 C 0,1 C 3,7 km/h (1 Bft)
18.12.2013 09:10 -0,3 C 59 % 1025,0 hPa 0,0 l/m 0,2 km/h (0 Bft) S 180 -7,3 C 0,0 C 0,0 km/h (0 Bft)
18.12.2013 09:15 -0,5 C 60 % 1025,0 hPa 0,0 l/m 0,3 km/h (0 Bft) S-SO 157 -7,3 C -0,1 C 0,0 km/h (0 Bft)
18.12.2013 09:20 -0,6 C 61 % 1024,9 hPa 0,0 l/m 0,2 km/h (0 Bft) S-SO 157 -7,2 C -0,3 C 0,0 km/h (0 Bft)
18.12.2013 09:25 1,5 C 61 % 1024,9 hPa 0,0 l/m 1,9 km/h (1 Bft) O 90 -5,2 C -0,1 C 6,3 km/h (2 Bft)
18.12.2013 09:30 2,5 C 57 % 1024,9 hPa 0,0 l/m 5,1 km/h (1 Bft) O 90 -5,1 C 0,1 C 7,1 km/h (2 Bft)
18.12.2013 09:35 2,1 C 58 % 1024,9 hPa 0,0 l/m 5,0 km/h (1 Bft) O-NO 67 -5,3 C 0,6 C 0,0 km/h (0 Bft)
18.12.2013 09:40 0,7 C 59 % 1025,2 hPa 0,0 l/m 2,6 km/h (1 Bft) NO 45 -6,4 C 1,8 C 0,0 km/h (0 Bft)
18.12.2013 09:45 0,5 C 61 % 1025,2 hPa 0,0 l/m 1,4 km/h (1 Bft) NO 45 -6,1 C 1,6 C 0,0 km/h (0 Bft)
18.12.2013 09:50 0,8 C 61 % 1025,2 hPa 0,0 l/m 1,3 km/h (1 Bft) NO 45 -5,8 C 1,4 C 3,1 km/h (1 Bft)
18.12.2013 09:55 1,1 C 61 % 1025,2 hPa 0,0 l/m 0,8 km/h (0 Bft) NO 45 -5,6 C 1,5 C 0,0 km/h (0 Bft)
18.12.2013 10:00 1,3 C 62 % 1025,2 hPa 0,0 l/m 0,5 km/h (0 Bft) NO 45 -5,2 C 1,8 C 0,0 km/h (0 Bft)
18.12.2013 10:05 1,1 C 62 % 1025,2 hPa 0,0 l/m 0,0 km/h (0 Bft) NO 45 -5,3 C 1,8 C 0,0 km/h (0 Bft)
18.12.2013 10:10 1,1 C 63 % 1025,2 hPa 0,0 l/m 0,0 km/h (0 Bft) NO 45 -5,1 C 1,8 C 0,0 km/h (0 Bft)
18.12.2013 10:15 1,0 C 63 % 1025,2 hPa 0,0 l/m 0,0 km/h (0 Bft) NO 45 -5,2 C 1,8 C 0,0 km/h (0 Bft)
18.12.2013 10:20 1,1 C 63 % 1025,3 hPa 0,0 l/m 0,2 km/h (0 Bft) NO 45 -5,1 C 1,8 C 0,0 km/h (0 Bft)
18.12.2013 10:25 1,0 C 63 % 1025,3 hPa 0,0 l/m 0,3 km/h (0 Bft) NO 45 -5,2 C 1,9 C 0,0 km/h (0 Bft)
18.12.2013 10:30 1,0 C 64 % 1025,3 hPa 0,0 l/m 1,1 km/h (1 Bft) O-SO 112 -5,0 C 1,8 C 2,9 km/h (1 Bft)
18.12.2013 10:35 1,2 C 65 % 1025,3 hPa 0,0 l/m 2,1 km/h (1 Bft) NO 45 -4,6 C 1,8 C 0,0 km/h (0 Bft)
18.12.2013 10:40 1,3 C 64 % 1025,2 hPa 0,0 l/m 2,1 km/h (1 Bft) NO 45 -4,7 C 1,9 C 4,0 km/h (1 Bft)
18.12.2013 10:45 1,5 C 65 % 1025,2 hPa 0,0 l/m 1,3 km/h (1 Bft) N 360 -4,3 C 2,0 C 0,0 km/h (0 Bft)
18.12.2013 10:48 1,8 C 65 % 1025,2 hPa 0,0 l/m 2,1 km/h (1 Bft) NO 45 -4,1 C 2,2 C 2,7 km/h (1 Bft)
18.12.2013 10:50 1,8 C 65 % 1025,2 hPa 0,0 l/m 2,1 km/h (1 Bft) NO 45 -4,1 C 2,2 C 2,7 km/h (1 Bft)
18.12.2013 10:55 1,7 C 64 % 1025,2 hPa 0,0 l/m 2,1 km/h (1 Bft) O-SO 112 -4,4 C 2,5 C 3,2 km/h (1 Bft)
18.12.2013 11:00 1,9 C 64 % 1025,0 hPa 0,0 l/m 1,9 km/h (1 Bft) S 180 -4,2 C 2,6 C 2,3 km/h (1 Bft)
18.12.2013 11:05 2,1 C 62 % 1025,0 hPa 0,0 l/m 1,6 km/h (1 Bft) NO 45 -4,4 C 2,6 C 4,7 km/h (1 Bft)
18.12.2013 11:10 3,0 C 58 % 1025,0 hPa 0,0 l/m 3,4 km/h (1 Bft) S-SW 202 -4,4 C 3,1 C 0,0 km/h (0 Bft)
18.12.2013 11:15 2,5 C 59 % 1025,0 hPa 0,0 l/m 4,0 km/h (1 Bft) NO 45 -4,7 C 2,7 C 6,1 km/h (2 Bft)
18.12.2013 11:20 2,3 C 61 % 1024,7 hPa 0,0 l/m 2,3 km/h (1 Bft) O 90 -4,4 C 3,2 C 2,6 km/h (1 Bft)
18.12.2013 11:25 2,2 C 62 % 1024,7 hPa 0,0 l/m 1,3 km/h (1 Bft) O 90 -4,3 C 3,1 C 1,8 km/h (1 Bft)
18.12.2013 11:30 2,5 C 63 % 1024,7 hPa 0,0 l/m 0,3 km/h (0 Bft) NO 45 -3,8 C 3,2 C 0,0 km/h (0 Bft)
18.12.2013 11:35 2,6 C 62 % 1024,7 hPa 0,0 l/m 0,2 km/h (0 Bft) NO 45 -3,9 C 3,4 C 0,0 km/h (0 Bft)
18.12.2013 11:40 2,7 C 63 % 1024,5 hPa 0,0 l/m 0,0 km/h (0 Bft) NO 45 -3,6 C 3,6 C 0,0 km/h (0 Bft)
18.12.2013 11:45 2,9 C 63 % 1024,5 hPa 0,0 l/m 0,0 km/h (0 Bft) NO 45 -3,4 C 3,8 C 0,0 km/h (0 Bft)
18.12.2013 11:50 3,0 C 62 % 1024,5 hPa 0,0 l/m 0,0 km/h (0 Bft) NO 45 -3,6 C 4,0 C 0,0 km/h (0 Bft)
18.12.2013 11:55 3,0 C 62 % 1024,5 hPa 0,0 l/m 0,0 km/h (0 Bft) NO 45 -3,6 C 4,0 C 0,0 km/h (0 Bft)
18.12.2013 12:00 3,1 C 61 % 1024,3 hPa 0,0 l/m 0,0 km/h (0 Bft) NO 45 -3,7 C 4,1 C 0,0 km/h (0 Bft)
18.12.2013 12:05 3,4 C 61 % 1024,3 hPa 0,0 l/m 0,0 km/h (0 Bft) NO 45 -3,4 C 4,2 C 0,0 km/h (0 Bft)
18.12.2013 12:10 3,4 C 61 % 1024,3 hPa 0,0 l/m 0,2 km/h (0 Bft) O-SO 112 -3,4 C 4,5 C 0,0 km/h (0 Bft)
18.12.2013 12:15 3,4 C 63 % 1024,3 hPa 0,0 l/m 0,2 km/h (0 Bft) O-SO 112 -3,0 C 4,6 C 0,0 km/h (0 Bft)
18.12.2013 12:20 3,5 C 62 % 1024,4 hPa 0,0 l/m 0,0 km/h (0 Bft) O 90 -3,1 C 4,5 C 0,0 km/h (0 Bft)
18.12.2013 12:25 3,5 C 62 % 1024,4 hPa 0,0 l/m 0,8 km/h (0 Bft) NO 45 -3,1 C 4,5 C 2,3 km/h (1 Bft)
18.12.2013 12:30 3,6 C 63 % 1024,4 hPa 0,0 l/m 1,0 km/h (0 Bft) NO 45 -2,8 C 4,6 C 0,0 km/h (0 Bft)
18.12.2013 12:35 4,1 C 63 % 1024,4 hPa 0,0 l/m 1,0 km/h (0 Bft) O 90 -2,3 C 4,7 C 4,3 km/h (1 Bft)
18.12.2013 12:40 4,6 C 61 % 1024,2 hPa 0,0 l/m 1,4 km/h (1 Bft) O 90 -2,3 C 5,0 C 0,0 km/h (0 Bft)
18.12.2013 12:45 4,3 C 61 % 1024,2 hPa 0,0 l/m 1,1 km/h (1 Bft) O 90 -2,5 C 5,1 C 0,0 km/h (0 Bft)
18.12.2013 12:50 4,2 C 62 % 1024,2 hPa 0,0 l/m 0,0 km/h (0 Bft) O 90 -2,4 C 5,1 C 0,0 km/h (0 Bft)
18.12.2013 12:55 3,8 C 62 % 1024,2 hPa 0,0 l/m 0,0 km/h (0 Bft) O 90 -2,8 C 5,1 C 0,0 km/h (0 Bft)
18.12.2013 13:00 3,8 C 62 % 1024,0 hPa 0,0 l/m 0,2 km/h (0 Bft) O-NO 67 -2,8 C 5,1 C 0,0 km/h (0 Bft)
18.12.2013 13:05 3,9 C 62 % 1024,0 hPa 0,0 l/m 0,2 km/h (0 Bft) O-NO 67 -2,7 C 5,1 C 0,0 km/h (0 Bft)
18.12.2013 13:10 4,2 C 62 % 1024,0 hPa 0,0 l/m 0,2 km/h (0 Bft) O-NO 67 -2,4 C 5,2 C 0,0 km/h (0 Bft)
18.12.2013 13:15 4,6 C 62 % 1024,0 hPa 0,0 l/m 0,0 km/h (0 Bft) O 90 -2,0 C 5,4 C 0,0 km/h (0 Bft)
18.12.2013 13:20 4,3 C 61 % 1024,1 hPa 0,0 l/m 0,5 km/h (0 Bft) O-SO 112 -2,5 C 5,4 C 0,0 km/h (0 Bft)
18.12.2013 13:25 4,2 C 61 % 1024,1 hPa 0,0 l/m 0,5 km/h (0 Bft) O-SO 112 -2,6 C 5,5 C 0,0 km/h (0 Bft)
18.12.2013 13:30 4,5 C 62 % 1024,1 hPa 0,0 l/m 0,0 km/h (0 Bft) O-SO 112 -2,1 C 5,7 C 0,0 km/h (0 Bft)
18.12.2013 13:35 4,4 C 62 % 1024,1 hPa 0,0 l/m 0,0 km/h (0 Bft) O-SO 112 -2,2 C 5,7 C 0,0 km/h (0 Bft)
18.12.2013 13:40 4,4 C 62 % 1023,9 hPa 0,0 l/m 0,0 km/h (0 Bft) O-SO 112 -2,2 C 5,5 C 0,0 km/h (0 Bft)
18.12.2013 13:45 4,3 C 62 % 1023,9 hPa 0,0 l/m 0,0 km/h (0 Bft) O-SO 112 -2,3 C 5,4 C 0,0 km/h (0 Bft)
18.12.2013 13:50 4,4 C 62 % 1023,9 hPa 0,0 l/m 0,0 km/h (0 Bft) O-SO 112 -2,2 C 5,4 C 1,6 km/h (1 Bft)
18.12.2013 13:55 4,5 C 62 % 1023,9 hPa 0,0 l/m 0,3 km/h (0 Bft) O-SO 112 -2,1 C 5,4 C 0,0 km/h (0 Bft)
18.12.2013 14:00 4,7 C 62 % 1023,6 hPa 0,0 l/m 0,3 km/h (0 Bft) O-SO 112 -1,9 C 5,4 C 0,0 km/h (0 Bft)
18.12.2013 14:05 4,9 C 62 % 1023,6 hPa 0,0 l/m 0,0 km/h (0 Bft) O-SO 112 -1,8 C 5,6 C 0,0 km/h (0 Bft)
18.12.2013 14:10 5,1 C 61 % 1023,6 hPa 0,0 l/m 0,0 km/h (0 Bft) O-SO 112 -1,8 C 5,8 C 0,0 km/h (0 Bft)
18.12.2013 14:15 5,1 C 61 % 1023,6 hPa 0,0 l/m 0,0 km/h (0 Bft) O-SO 112 -1,8 C 6,0 C 0,0 km/h (0 Bft)
18.12.2013 14:20 4,8 C 60 % 1023,4 hPa 0,0 l/m 0,0 km/h (0 Bft) O-SO 112 -2,3 C 6,0 C 0,0 km/h (0 Bft)
18.12.2013 14:25 4,7 C 61 % 1023,4 hPa 0,0 l/m 0,0 km/h (0 Bft) O-SO 112 -2,2 C 6,0 C 0,0 km/h (0 Bft)
18.12.2013 14:30 4,3 C 61 % 1023,4 hPa 0,0 l/m 0,0 km/h (0 Bft) O-SO 112 -2,5 C 5,6 C 0,0 km/h (0 Bft)
18.12.2013 14:35 4,0 C 62 % 1023,4 hPa 0,0 l/m 0,0 km/h (0 Bft) O-SO 112 -2,6 C 5,4 C 0,0 km/h (0 Bft)
18.12.2013 14:40 3,8 C 63 % 1023,2 hPa 0,0 l/m 0,0 km/h (0 Bft) O-SO 112 -2,6 C 5,1 C 0,0 km/h (0 Bft)
18.12.2013 14:45 3,7 C 63 % 1023,2 hPa 0,0 l/m 0,0 km/h (0 Bft) O-SO 112 -2,7 C 5,1 C 0,0 km/h (0 Bft)
18.12.2013 14:50 3,6 C 63 % 1023,2 hPa 0,0 l/m 0,0 km/h (0 Bft) O-SO 112 -2,8 C 5,0 C 0,0 km/h (0 Bft)
18.12.2013 14:55 3,5 C 63 % 1023,2 hPa 0,0 l/m 0,0 km/h (0 Bft) O-SO 112 -2,9 C 5,1 C 0,0 km/h (0 Bft)
18.12.2013 15:00 3,5 C 63 % 1022,9 hPa 0,0 l/m 0,0 km/h (0 Bft) O-SO 112 -2,9 C 5,2 C 0,0 km/h (0 Bft)
18.12.2013 15:05 3,4 C 62 % 1022,9 hPa 0,0 l/m 0,0 km/h (0 Bft) O-SO 112 -3,2 C 5,0 C 0,0 km/h (0 Bft)
18.12.2013 15:10 3,6 C 61 % 1022,9 hPa 0,0 l/m 1,1 km/h (1 Bft) NO 45 -3,2 C 4,4 C 3,7 km/h (1 Bft)
18.12.2013 15:15 4,0 C 59 % 1022,9 hPa 0,0 l/m 1,6 km/h (1 Bft) N-NO 22 -3,3 C 4,4 C 3,2 km/h (1 Bft)
18.12.2013 15:20 2,8 C 62 % 1022,8 hPa 0,0 l/m 1,6 km/h (1 Bft) W-SW 247 -3,7 C 4,2 C 1,9 km/h (1 Bft)
18.12.2013 15:25 2,9 C 62 % 1022,8 hPa 0,0 l/m 1,8 km/h (1 Bft) N 360 -3,6 C 3,7 C 2,3 km/h (1 Bft)
18.12.2013 15:30 3,1 C 60 % 1022,8 hPa 0,0 l/m 1,6 km/h (1 Bft) N 360 -3,9 C 3,4 C 2,1 km/h (1 Bft)
18.12.2013 15:35 2,7 C 61 % 1022,8 hPa 0,0 l/m 0,8 km/h (0 Bft) N 360 -4,1 C 3,2 C 0,0 km/h (0 Bft)
18.12.2013 15:40 2,3 C 61 % 1022,6 hPa 0,0 l/m 0,2 km/h (0 Bft) N 360 -4,4 C 2,8 C 0,0 km/h (0 Bft)
18.12.2013 15:45 2,4 C 62 % 1022,6 hPa 0,0 l/m 0,2 km/h (0 Bft) N 360 -4,1 C 2,6 C 3,1 km/h (1 Bft)
18.12.2013 15:50 2,1 C 61 % 1022,6 hPa 0,0 l/m 0,5 km/h (0 Bft) N 360 -4,6 C 2,5 C 0,0 km/h (0 Bft)
18.12.2013 15:55 1,9 C 62 % 1022,6 hPa 0,0 l/m 0,5 km/h (0 Bft) N 360 -4,6 C 2,3 C 0,0 km/h (0 Bft)
18.12.2013 16:00 1,6 C 63 % 1022,4 hPa 0,0 l/m 0,0 km/h (0 Bft) N 360 -4,7 C 1,8 C 0,0 km/h (0 Bft)
18.12.2013 16:05 1,4 C 63 % 1022,4 hPa 0,0 l/m 0,3 km/h (0 Bft) N 360 -4,9 C 1,6 C 1,6 km/h (1 Bft)
18.12.2013 16:10 1,9 C 62 % 1022,4 hPa 0,0 l/m 0,5 km/h (0 Bft) N 360 -4,6 C 1,7 C 0,0 km/h (0 Bft)
18.12.2013 16:15 2,0 C 62 % 1022,4 hPa 0,0 l/m 0,2 km/h (0 Bft) N 360 -4,5 C 1,6 C 0,0 km/h (0 Bft)
18.12.2013 16:20 2,5 C 59 % 1022,1 hPa 0,0 l/m 0,6 km/h (0 Bft) N 360 -4,7 C 1,6 C 1,6 km/h (1 Bft)
18.12.2013 16:25 1,6 C 59 % 1022,1 hPa 0,0 l/m 0,6 km/h (0 Bft) N 360 -5,5 C 1,5 C 0,0 km/h (0 Bft)
18.12.2013 16:30 0,4 C 61 % 1022,1 hPa 0,0 l/m 0,0 km/h (0 Bft) N 360 -6,2 C 1,0 C 0,0 km/h (0 Bft)
18.12.2013 16:35 -0,2 C 64 % 1022,1 hPa 0,0 l/m 0,0 km/h (0 Bft) N 360 -6,2 C 0,4 C 0,0 km/h (0 Bft)
18.12.2013 16:40 -0,5 C 65 % 1022,0 hPa 0,0 l/m 0,8 km/h (0 Bft) N 360 -6,3 C -0,1 C 0,0 km/h (0 Bft)
18.12.2013 16:45 -0,8 C 66 % 1022,0 hPa 0,0 l/m 0,8 km/h (0 Bft) N 360 -6,3 C -0,2 C 0,0 km/h (0 Bft)
18.12.2013 16:48 -1,3 C 66 % 1022,0 hPa 0,0 l/m 0,0 km/h (0 Bft) N 360 -6,8 C -0,7 C 0,0 km/h (0 Bft)
18.12.2013 16:50 -1,3 C 66 % 1022,0 hPa 0,0 l/m 0,0 km/h (0 Bft) N 360 -6,8 C -0,7 C 0,0 km/h (0 Bft)
18.12.2013 16:55 -1,5 C 67 % 1022,0 hPa 0,0 l/m 0,0 km/h (0 Bft) N 360 -6,8 C -1,0 C 0,0 km/h (0 Bft)
18.12.2013 17:00 -1,7 C 68 % 1021,9 hPa 0,0 l/m 0,0 km/h (0 Bft) N 360 -6,8 C -1,5 C 0,0 km/h (0 Bft)
18.12.2013 17:05 -1,9 C 69 % 1021,9 hPa 0,0 l/m 0,0 km/h (0 Bft) N 360 -6,8 C -1,9 C 2,6 km/h (1 Bft)
18.12.2013 17:10 -1,5 C 71 % 1021,9 hPa 0,0 l/m 1,3 km/h (1 Bft) N 360 -6,1 C -1,7 C 3,5 km/h (1 Bft)
18.12.2013 17:15 -1,5 C 71 % 1021,9 hPa 0,0 l/m 1,8 km/h (1 Bft) N 360 -6,1 C -1,2 C 0,0 km/h (0 Bft)
18.12.2013 17:20 -1,9 C 71 % 1021,6 hPa 0,0 l/m 1,6 km/h (1 Bft) W-SW 247 -6,4 C -1,1 C 2,1 km/h (1 Bft)
18.12.2013 17:25 -2,1 C 72 % 1021,6 hPa 0,0 l/m 1,0 km/h (0 Bft) W-SW 247 -6,5 C -1,4 C 0,0 km/h (0 Bft)
18.12.2013 17:30 -2,0 C 73 % 1021,6 hPa 0,0 l/m 0,5 km/h (0 Bft) N-NW 337 -6,2 C -1,7 C 0,0 km/h (0 Bft)
18.12.2013 17:35 -2,3 C 73 % 1021,6 hPa 0,0 l/m 0,2 km/h (0 Bft) N-NW 337 -6,5 C -1,9 C 0,0 km/h (0 Bft)
18.12.2013 17:40 -2,7 C 73 % 1021,6 hPa 0,0 l/m 0,0 km/h (0 Bft) N-NW 337 -6,9 C -2,5 C 0,0 km/h (0 Bft)
18.12.2013 17:45 -2,8 C 73 % 1021,6 hPa 0,0 l/m 0,0 km/h (0 Bft) N-NW 337 -6,9 C -2,7 C 0,0 km/h (0 Bft)
18.12.2013 17:50 -2,9 C 74 % 1021,6 hPa 0,0 l/m 0,0 km/h (0 Bft) N-NW 337 -6,9 C -2,9 C 0,0 km/h (0 Bft)
18.12.2013 17:55 -2,6 C 74 % 1021,6 hPa 0,0 l/m 0,0 km/h (0 Bft) W-NW 292 -6,6 C -2,9 C 2,1 km/h (1 Bft)
18.12.2013 18:00 -2,8 C 76 % 1021,4 hPa 0,0 l/m 0,2 km/h (0 Bft) N-NW 337 -6,4 C -2,9 C 1,6 km/h (1 Bft)
18.12.2013 18:05 -2,7 C 76 % 1021,4 hPa 0,0 l/m 0,2 km/h (0 Bft) N-NW 337 -6,3 C -3,0 C 0,0 km/h (0 Bft)
18.12.2013 18:10 -3,2 C 76 % 1021,4 hPa 0,0 l/m 0,0 km/h (0 Bft) NW 315 -6,8 C -3,1 C 0,0 km/h (0 Bft)
18.12.2013 18:15 -1,9 C 77 % 1021,4 hPa 0,0 l/m 0,3 km/h (0 Bft) NO 45 -5,4 C -3,4 C 1,8 km/h (1 Bft)
18.12.2013 18:20 -0,9 C 75 % 1021,1 hPa 0,0 l/m 3,2 km/h (1 Bft) O 90 -4,8 C -3,7 C 6,4 km/h (2 Bft)
18.12.2013 18:25 -1,3 C 74 % 1021,1 hPa 0,0 l/m 3,9 km/h (1 Bft) O 90 -5,3 C -3,5 C 0,0 km/h (0 Bft)
18.12.2013 18:30 -2,5 C 73 % 1021,1 hPa 0,0 l/m 1,6 km/h (1 Bft) O 90 -6,7 C -2,7 C 0,0 km/h (0 Bft)
18.12.2013 18:35 -2,9 C 73 % 1021,1 hPa 0,0 l/m 0,0 km/h (0 Bft) O-SO 112 -7,0 C -2,9 C 0,0 km/h (0 Bft)
18.12.2013 18:40 -3,2 C 75 % 1021,1 hPa 0,0 l/m 0,0 km/h (0 Bft) O-SO 112 -7,0 C -3,2 C 0,0 km/h (0 Bft)
18.12.2013 18:45 -2,9 C 75 % 1021,1 hPa 0,0 l/m 1,0 km/h (0 Bft) O 90 -6,7 C -3,3 C 6,3 km/h (2 Bft)
18.12.2013 18:50 -1,6 C 76 % 1021,1 hPa 0,0 l/m 4,0 km/h (1 Bft) O-SO 112 -5,3 C -4,2 C 6,4 km/h (2 Bft)
18.12.2013 18:55 -2,2 C 75 % 1021,1 hPa 0,0 l/m 4,3 km/h (1 Bft) SO 135 -6,0 C -4,1 C 0,0 km/h (0 Bft)
18.12.2013 19:00 -3,4 C 75 % 1020,9 hPa 0,0 l/m 1,1 km/h (1 Bft) O-NO 67 -7,2 C -2,9 C 0,0 km/h (0 Bft)
18.12.2013 19:05 -3,6 C 75 % 1020,9 hPa 0,0 l/m 0,0 km/h (0 Bft) O-NO 67 -7,4 C -3,2 C 0,0 km/h (0 Bft)
18.12.2013 19:10 -4,0 C 75 % 1020,9 hPa 0,0 l/m 0,0 km/h (0 Bft) O-NO 67 -7,8 C -3,7 C 0,0 km/h (0 Bft)
18.12.2013 19:15 -3,9 C 76 % 1020,9 hPa 0,0 l/m 0,0 km/h (0 Bft) O-NO 67 -7,5 C -3,8 C 0,0 km/h (0 Bft)
18.12.2013 19:20 -4,0 C 76 % 1020,8 hPa 0,0 l/m 0,0 km/h (0 Bft) O 90 -7,6 C -3,8 C 0,0 km/h (0 Bft)
18.12.2013 19:25 -3,9 C 77 % 1020,8 hPa 0,0 l/m 0,0 km/h (0 Bft) O 90 -7,3 C -4,0 C 0,0 km/h (0 Bft)
18.12.2013 19:30 -4,1 C 77 % 1020,8 hPa 0,0 l/m 0,0 km/h (0 Bft) O-NO 67 -7,5 C -4,1 C 0,0 km/h (0 Bft)
18.12.2013 19:35 -4,2 C 77 % 1020,8 hPa 0,0 l/m 0,0 km/h (0 Bft) O-NO 67 -7,6 C -4,2 C 0,0 km/h (0 Bft)
18.12.2013 19:40 -4,3 C 78 % 1020,7 hPa 0,0 l/m 0,0 km/h (0 Bft) O-NO 67 -7,5 C -4,2 C 0,0 km/h (0 Bft)
18.12.2013 19:45 -4,4 C 78 % 1020,7 hPa 0,0 l/m 0,0 km/h (0 Bft) O-NO 67 -7,6 C -4,2 C 0,0 km/h (0 Bft)
18.12.2013 19:50 -4,4 C 78 % 1020,7 hPa 0,0 l/m 0,0 km/h (0 Bft) O-NO 67 -7,6 C -4,3 C 0,0 km/h (0 Bft)
18.12.2013 19:55 -4,3 C 79 % 1020,7 hPa 0,0 l/m 0,0 km/h (0 Bft) O-NO 67 -7,4 C -4,4 C 0,0 km/h (0 Bft)
18.12.2013 20:00 -4,5 C 79 % 1020,4 hPa 0,0 l/m 0,0 km/h (0 Bft) O-NO 67 -7,6 C -4,3 C 0,0 km/h (0 Bft)
18.12.2013 20:05 -4,7 C 79 % 1020,4 hPa 0,0 l/m 0,0 km/h (0 Bft) O-NO 67 -7,8 C -4,3 C 0,0 km/h (0 Bft)
18.12.2013 20:10 -4,7 C 79 % 1020,4 hPa 0,0 l/m 0,0 km/h (0 Bft) O 90 -7,8 C -4,2 C 0,0 km/h (0 Bft)
18.12.2013 20:15 -4,7 C 79 % 1020,4 hPa 0,0 l/m 0,0 km/h (0 Bft) O-SO 112 -7,8 C -4,2 C 0,0 km/h (0 Bft)
18.12.2013 20:20 -4,2 C 81 % 1020,1 hPa 0,0 l/m 0,0 km/h (0 Bft) O 90 -7,0 C -4,3 C 0,0 km/h (0 Bft)
18.12.2013 20:25 -4,2 C 82 % 1020,1 hPa 0,0 l/m 0,0 km/h (0 Bft) O 90 -6,8 C -4,3 C 0,0 km/h (0 Bft)
18.12.2013 20:30 -4,2 C 82 % 1020,1 hPa 0,0 l/m 0,0 km/h (0 Bft) O 90 -6,8 C -4,4 C 0,0 km/h (0 Bft)
18.12.2013 20:35 -4,0 C 82 % 1020,1 hPa 0,0 l/m 0,0 km/h (0 Bft) O 90 -6,6 C -4,4 C 0,0 km/h (0 Bft)
18.12.2013 20:40 -4,2 C 82 % 1019,8 hPa 0,0 l/m 0,0 km/h (0 Bft) O 90 -6,8 C -4,2 C 0,0 km/h (0 Bft)
18.12.2013 20:45 -4,0 C 82 % 1019,8 hPa 0,0 l/m 0,0 km/h (0 Bft) O-NO 67 -6,6 C -4,2 C 0,0 km/h (0 Bft)
18.12.2013 20:50 -4,4 C 82 % 1019,8 hPa 0,0 l/m 0,0 km/h (0 Bft) O 90 -7,0 C -4,3 C 0,0 km/h (0 Bft)
18.12.2013 20:55 -4,6 C 82 % 1019,8 hPa 0,0 l/m 0,0 km/h (0 Bft) O-NO 67 -7,2 C -4,4 C 0,0 km/h (0 Bft)
18.12.2013 21:00 -4,7 C 82 % 1019,6 hPa 0,0 l/m 0,0 km/h (0 Bft) O 90 -7,3 C -4,4 C 0,0 km/h (0 Bft)
18.12.2013 21:05 -4,6 C 82 % 1019,6 hPa 0,0 l/m 0,0 km/h (0 Bft) O-NO 67 -7,2 C -4,4 C 0,0 km/h (0 Bft)
18.12.2013 21:10 -4,3 C 83 % 1019,6 hPa 0,0 l/m 0,0 km/h (0 Bft) O 90 -6,7 C -4,5 C 0,0 km/h (0 Bft)
18.12.2013 21:15 -4,2 C 83 % 1019,6 hPa 0,0 l/m 0,0 km/h (0 Bft) O 90 -6,6 C -4,5 C 0,0 km/h (0 Bft)
18.12.2013 21:20 -3,2 C 84 % 1019,5 hPa 0,0 l/m 1,6 km/h (1 Bft) O-NO 67 -5,5 C -4,2 C 2,7 km/h (1 Bft)
18.12.2013 21:25 -2,5 C 84 % 1019,5 hPa 0,0 l/m 2,7 km/h (1 Bft) O 90 -4,8 C -4,4 C 0,0 km/h (0 Bft)
18.12.2013 21:30 -3,2 C 82 % 1019,5 hPa 0,0 l/m 1,3 km/h (1 Bft) NO 45 -5,8 C -3,8 C 0,0 km/h (0 Bft)
18.12.2013 21:35 -3,6 C 82 % 1019,5 hPa 0,0 l/m 0,0 km/h (0 Bft) NO 45 -6,2 C -3,8 C 0,0 km/h (0 Bft)
18.12.2013 21:40 -3,7 C 82 % 1019,2 hPa 0,0 l/m 0,0 km/h (0 Bft) NO 45 -6,3 C -3,9 C 0,0 km/h (0 Bft)
18.12.2013 21:45 -2,9 C 82 % 1019,2 hPa 0,0 l/m 0,6 km/h (0 Bft) O-NO 67 -5,5 C -3,8 C 5,0 km/h (1 Bft)
18.12.2013 21:50 -3,1 C 81 % 1019,2 hPa 0,0 l/m 0,6 km/h (0 Bft) NO 45 -5,9 C -3,7 C 0,0 km/h (0 Bft)
18.12.2013 21:55 -3,6 C 80 % 1019,2 hPa 0,0 l/m 0,5 km/h (0 Bft) NO 45 -6,5 C -3,7 C 0,0 km/h (0 Bft)
18.12.2013 22:00 -3,2 C 81 % 1019,1 hPa 0,0 l/m 0,6 km/h (0 Bft) NO 45 -6,0 C -3,8 C 5,6 km/h (1 Bft)
18.12.2013 22:05 -2,5 C 81 % 1019,1 hPa 0,0 l/m 1,0 km/h (0 Bft) O 90 -5,3 C -3,8 C 3,1 km/h (1 Bft)
18.12.2013 22:10 -3,1 C 79 % 1019,1 hPa 0,0 l/m 0,8 km/h (0 Bft) NO 45 -6,2 C -3,7 C 0,0 km/h (0 Bft)
18.12.2013 22:15 -3,4 C 78 % 1019,1 hPa 0,0 l/m 0,2 km/h (0 Bft) NO 45 -6,7 C -3,8 C 0,0 km/h (0 Bft)
18.12.2013 22:20 -3,6 C 78 % 1018,8 hPa 0,0 l/m 0,0 km/h (0 Bft) O-NO 67 -6,9 C -4,0 C 0,0 km/h (0 Bft)
18.12.2013 22:25 -3,7 C 78 % 1018,8 hPa 0,0 l/m 0,0 km/h (0 Bft) NO 45 -7,0 C -4,0 C 0,0 km/h (0 Bft)
18.12.2013 22:30 -3,8 C 79 % 1018,8 hPa 0,0 l/m 0,0 km/h (0 Bft) N-NW 337 -6,9 C -3,9 C 0,0 km/h (0 Bft)
18.12.2013 22:35 -3,9 C 79 % 1018,8 hPa 0,0 l/m 0,0 km/h (0 Bft) W-NW 292 -7,0 C -3,9 C 0,0 km/h (0 Bft)
18.12.2013 22:40 -3,8 C 79 % 1018,6 hPa 0,0 l/m 0,0 km/h (0 Bft) NW 315 -6,9 C -4,0 C 0,0 km/h (0 Bft)
18.12.2013 22:45 -4,0 C 79 % 1018,6 hPa 0,0 l/m 0,0 km/h (0 Bft) NW 315 -7,1 C -4,1 C 0,0 km/h (0 Bft)
18.12.2013 22:48 -4,5 C 79 % 1018,6 hPa 0,0 l/m 0,0 km/h (0 Bft) NW 315 -7,6 C -4,3 C 0,0 km/h (0 Bft)
18.12.2013 22:50 -4,5 C 79 % 1018,6 hPa 0,0 l/m 0,0 km/h (0 Bft) NW 315 -7,6 C -4,3 C 0,0 km/h (0 Bft)
18.12.2013 22:55 -4,6 C 79 % 1018,6 hPa 0,0 l/m 0,0 km/h (0 Bft) W 270 -7,7 C -4,4 C 0,0 km/h (0 Bft)
18.12.2013 23:00 -4,4 C 79 % 1018,1 hPa 0,0 l/m 0,0 km/h (0 Bft) W 270 -7,5 C -4,6 C 0,0 km/h (0 Bft)
18.12.2013 23:05 -4,6 C 79 % 1018,1 hPa 0,0 l/m 0,0 km/h (0 Bft) NW 315 -7,7 C -4,7 C 0,0 km/h (0 Bft)
18.12.2013 23:10 -4,9 C 79 % 1018,1 hPa 0,0 l/m 0,0 km/h (0 Bft) W-NW 292 -8,0 C -4,7 C 0,0 km/h (0 Bft)
18.12.2013 23:15 -4,9 C 79 % 1018,1 hPa 0,0 l/m 0,0 km/h (0 Bft) W 270 -8,0 C -4,8 C 0,0 km/h (0 Bft)
18.12.2013 23:20 -5,1 C 79 % 1017,7 hPa 0,0 l/m 0,0 km/h (0 Bft) W 270 -8,2 C -4,8 C 0,0 km/h (0 Bft)
18.12.2013 23:25 -4,9 C 80 % 1017,7 hPa 0,0 l/m 0,0 km/h (0 Bft) N-NW 337 -7,8 C -5,0 C 0,0 km/h (0 Bft)
18.12.2013 23:30 -4,8 C 80 % 1017,7 hPa 0,0 l/m 0,0 km/h (0 Bft) W 270 -7,7 C -5,0 C 0,0 km/h (0 Bft)
18.12.2013 23:35 -4,5 C 81 % 1017,7 hPa 0,0 l/m 0,0 km/h (0 Bft) W 270 -7,3 C -5,1 C 0,0 km/h (0 Bft)
18.12.2013 23:40 -4,9 C 81 % 1017,4 hPa 0,0 l/m 0,0 km/h (0 Bft) W 270 -7,6 C -5,3 C 0,0 km/h (0 Bft)
18.12.2013 23:45 -5,1 C 81 % 1017,4 hPa 0,0 l/m 0,0 km/h (0 Bft) W 270 -7,8 C -5,3 C 0,0 km/h (0 Bft)
18.12.2013 23:50 -5,4 C 80 % 1017,4 hPa 0,0 l/m 0,0 km/h (0 Bft) W 270 -8,3 C -5,3 C 0,0 km/h (0 Bft)
18.12.2013 23:55 -5,1 C 81 % 1017,4 hPa 0,0 l/m 0,0 km/h (0 Bft) N-NW 337 -7,8 C -5,4 C 0,0 km/h (0 Bft)
_ Min-Zeit 03:55 08:15 23:55 - 23:55 - - 00:45 04:00 23:55
Minimum _ -5,9 C 45 % 1017,4 hPa - 0,0 km/h (0 Bft) - - -8,6 C -5,8 C 0,0 km/h (0 Bft)
_ Max-Zeit 14:15 21:25 10:35 23:55 07:50 - - 14:05 14:25 08:15
Maximum _ 5,1 C 84 % 1025,3 hPa 0,0 l/m 11,9 km/h
O-SO (2 Bft)
- - -1,8 C 6,0 C 18,8 km/h
SO (3 Bft)
Durchschnitt _ -1,7 C 72 % 1023,0 hPa #0,0 l/m 1,0 km/h (0 Bft) O - -6,2 C -1,7 C 1,3 km/h (1 Bft)